Location: Corralito
(10.2667°N, 66.9500°W)
Time: 13:49:22
(UTC+00:00)

GPS 2-12 Rocket1 - Pass Details

Date: 14 December 2023
Orbit: 576 x 637 km, 20.0° (Epoch: 04 March)

Event Time Altitude Azimuth Distance (km) Brightness Sun altitude
Rises 00:12:24 0° 271° (W) 2,921 7.5 -29.3°
Reaches altitude 10° 00:14:54 10° 279° (W) 2,013 6.4 -29.8°
Enters shadow 00:17:24 26° 301° (WNW) 1,236 4.9 -30.4°
